Location: Bessat
(45.8735°N, 1.9924°E)
Time: 04:44:30
(UTC+00:00)

USA 308 - Pass Details

Date: 11 May 2021
Orbit: 568 x 576 km, 54.0° (Epoch: 10 May)

Event Time Altitude Azimuth Distance (km) Brightness Sun altitude
Rises 19:40:30 0° 298° (WNW) 2,782 9.2 -5.0°
Reaches altitude 10° 19:42:58 10° 309° (NW) 1,884 7.4 -5.4°
Maximum altitude 19:46:47 31° 12° (NNE) 1,027 4.5 -6.0°
Drops below altitude 10° 19:50:37 10° 75° (ENE) 1,885 5.2 -6.5°
Enters shadow 19:52:38 - 85° (E) 2,614 5.8 -6.8°
